GFSNE_700_spd_135.txt.gz
Wind_Speed
49 46 45 42 38 38 36 35 35 34 33 31 28 26 24 22 22 30 34 33 29 29 28 27 26 24 23 24 25 27 31 32 31 33 35 31 32 33
50 48 46 44 41 41 39 38 38 37 37 34 30 27 30 29 32 32 36 32 28 28 29 29 28 28 26 25 26 28 30 33 38 30 35 35 44 36
48 49 47 45 42 42 42 41 42 41 41 36 36 34 34 34 30 30 37 34 29 25 25 25 27 26 29 31 30 32 33 33 34 44 45 34 36 42
49 53 51 48 46 45 45 44 44 45 43 37 33 41 35 29 24 20 28 39 46 34 35 29 29 34 31 34 33 36 37 36 35 37 42 45 45 41
48 49 50 51 49 48 48 49 48 45 52 45 40 39 31 29 34 28 27 27 28 27 29 35 35 37 34 40 37 39 40 41 39 38 40 44 43 46
65 46 47 47 56 53 51 57 56 57 39 37 37 35 28 32 36 36 36 35 36 34 34 37 38 42 42 40 40 38 41 42 41 42 46 44 42 48
39 50 43 49 51 50 57 60 69 52 34 31 29 39 38 38 36 38 40 40 38 36 38 36 38 41 41 41 37 34 36 43 44 43 42 41 47 49
17 12 16 24 24 33 38 44 48 37 29 36 36 46 41 40 42 40 46 45 42 42 40 36 35 39 42 37 39 36 41 42 44 44 44 44 44 45
5 7 9 18 18 23 28 37 33 25 27 35 34 35 36 42 44 41 44 49 48 42 41 44 36 36 31 36 41 45 43 43 45 48 47 46 45 49
13 11 9 11 13 15 16 20 24 26 29 31 35 36 38 42 47 50 49 48 46 48 38 40 40 44 49 49 48 45 44 42 41 45 46 44 45 46
6 7 9 9 9 9 10 13 13 15 17 20 21 25 30 34 38 42 44 45 44 41 45 52 55 50 47 55 59 52 45 43 41 44 41 46 48 46
11 11 11 12 13 15 18 18 18 20 21 22 22 23 24 24 25 28 32 35 42 46 49 49 51 51 52 51 51 53 49 49 50 49 49 48 52 50
15 16 17 18 19 20 21 22 23 25 26 26 27 26 27 28 29 29 30 30 30 32 35 38 44 48 54 57 56 56 57 52 51 53 50 51 51 54
24 24 23 23 23 24 26 28 30 31 32 32 32 32 33 34 34 33 33 33 33 32 32 33 33 36 39 41 44 48 49 53 56 57 55 53 52 52
30 30 31 33 34 35 35 35 34 34 35 37 37 37 37 37 37 37 37 38 38 37 36 35 35 34 36 37 37 35 39 45 49 49 51 53 54 57
33 35 37 38 40 41 42 42 42 41 41 40 40 40 41 41 41 41 41 41 40 39 38 38 38 36 35 35 35 35 34 35 40 45 47 47 50 52
35 36 37 38 40 42 44 46 47 48 49 48 47 45 44 44 44 44 44 44 43 42 41 39 38 38 38 37 35 34 33 32 32 34 37 39 41 44
37 38 38 39 40 41 42 43 46 48 49 49 50 50 48 46 46 46 46 46 45 43 42 40 39 38 38 37 36 34 33 32 31 30 30 32 33 35
38 38 38 39 39 38 39 40 41 42 44 45 47 48 47 46 46 45 44 45 45 43 42 40 39 37 36 35 34 33 31 31 30 29 27 27 28 29
37 37 36 35 36 37 39 39 39 39 39 40 40 42 43 43 41 42 42 42 42 41 40 38 37 36 35 33 33 32 30 28 27 26 26 25 24 24
33 33 34 34 34 35 37 38 39 38 37 36 37 37 37 38 36 36 37 37 37 37 36 36 34 32 31 31 29 28 27 27 24 25 24 23 22 21
31 32 32 33 33 34 35 36 37 37 36 36 35 33 33 33 32 31 32 32 32 32 32 32 32 30 28 28 27 26 25 25 24 23 22 21 19 18
36 33 31 30 30 31 31 32 32 34 34 34 33 32 31 30 29 28 27 28 28 28 28 27 27 28 26 24 24 24 23 22 21 21 21 21 20 20

GFSNE_700_spd_138.txt.gz
Wind_Speed
39 52 47 46 44 41 43 41 38 39 38 37 35 32 31 30 28 29 29 27 28 33 35 35 35 33 29 26 26 25 26 26 28 28 29 28 26 26
56 42 50 47 45 42 41 42 40 39 41 40 38 36 35 33 33 33 32 29 30 36 39 38 37 36 33 29 28 27 27 28 29 29 29 31 32 34
45 44 43 48 46 45 43 43 43 41 43 43 41 40 38 36 37 36 38 38 39 36 39 35 35 35 33 29 30 31 29 28 29 33 33 35 39 34
53 60 59 46 49 49 48 48 48 46 49 49 45 42 39 38 37 37 39 33 31 32 36 40 35 32 32 29 30 31 29 30 32 33 36 36 36 34
39 39 51 42 44 45 44 47 50 48 47 46 48 45 41 40 41 39 40 37 29 22 25 39 42 40 43 39 35 35 36 34 35 35 37 38 39 39
30 27 35 37 41 48 47 53 48 48 46 50 48 50 45 47 44 44 50 50 39 32 32 29 29 34 36 39 41 41 42 40 39 39 39 39 39 42
24 29 34 48 55 53 62 48 51 54 51 49 48 61 53 63 57 55 43 40 41 41 40 38 37 40 37 39 38 40 42 42 42 40 39 41 43 43
18 17 35 38 41 45 56 47 46 49 46 46 50 61 60 56 49 56 41 40 37 40 42 42 39 40 37 41 42 41 45 43 43 39 36 39 42 44
5 6 9 12 15 25 34 33 37 27 40 28 38 47 38 37 42 35 35 39 39 42 47 44 41 40 43 40 40 42 40 44 44 44 43 42 43 45
14 14 11 11 12 8 5 5 8 14 19 17 19 27 31 31 36 33 36 37 40 46 46 50 48 47 43 45 39 42 43 43 42 46 46 47 47 48
14 10 8 7 7 7 7 7 6 7 10 11 12 13 17 20 24 30 33 36 45 47 49 52 50 49 45 41 43 45 52 51 53 51 51 54 48 48
12 10 8 8 10 11 12 13 13 13 13 14 15 17 19 20 21 24 23 24 27 29 32 37 40 43 46 48 51 54 55 64 56 56 54 50 51 53
13 13 12 12 13 15 17 18 18 20 21 22 22 23 25 26 27 28 30 30 29 31 32 33 34 35 38 40 38 45 52 55 58 60 59 59 59 59
20 20 20 19 19 20 21 22 23 25 26 28 30 30 31 31 32 32 33 34 35 36 37 38 38 39 39 40 40 37 38 40 43 46 51 58 59 60
22 23 23 24 26 28 29 29 30 31 32 34 35 35 36 37 37 37 38 38 39 40 40 41 42 42 44 45 45 43 42 41 41 40 41 43 46 49
25 25 27 29 31 33 34 35 36 36 37 38 40 40 41 41 42 42 42 43 43 43 44 44 45 45 45 47 47 46 45 44 43 41 40 39 40 42
34 35 34 32 32 34 36 37 39 40 41 41 40 40 42 43 44 45 45 45 46 46 45 46 47 47 47 47 46 46 45 44 43 42 40 38 37 37
35 35 36 39 40 39 38 38 40 40 41 42 42 42 42 42 42 42 45 46 46 47 48 47 47 46 48 47 47 46 45 43 41 40 38 37 36 35
34 35 35 36 37 38 39 40 40 41 42 42 42 42 41 40 39 38 38 39 40 42 43 45 44 46 45 45 45 45 43 42 39 37 36 34 34 33
34 34 34 34 35 35 36 37 38 40 40 41 41 41 41 39 37 36 36 36 35 35 36 37 38 39 40 40 40 42 41 38 35 34 33 33 31 30
33 32 32 33 33 34 35 36 37 38 39 40 41 40 39 38 37 36 35 34 33 32 31 31 33 34 34 35 34 35 35 34 32 30 28 27 26 26
32 32 33 33 32 30 28 29 30 33 35 37 38 38 38 37 35 32 31 30 29 30 28 27 28 29 29 30 29 29 29 30 29 28 26 24 22 21
37 34 31 30 30 30 30 30 31 31 32 33 34 35 34 33 32 31 29 28 27 26 26 24 25 26 26 26 26 25 24 24 24 23 22 20 19 20

GFSNE_700_spd_141.txt.gz
Wind_Speed
43 45 55 42 48 50 49 47 43 43 41 42 43 40 39 37 35 34 33 31 32 32 32 32 31 31 32 32 30 29 28 28 26 26 25 27 27 31
33 43 47 53 45 52 48 49 45 42 42 41 41 41 40 39 38 36 36 34 34 34 33 30 29 32 34 35 35 33 31 29 28 27 27 28 29 29
29 35 40 56 60 38 50 52 48 43 42 44 45 44 43 42 41 40 39 38 37 37 35 34 35 39 39 37 36 35 34 33 32 30 28 28 30 29
27 28 36 46 60 64 51 48 48 44 41 44 46 46 45 43 43 43 43 42 41 40 40 39 41 42 40 36 33 36 35 32 32 33 31 31 32 35
29 30 31 34 43 51 51 41 50 47 43 42 45 47 46 45 47 46 46 45 45 43 44 41 39 39 40 37 37 35 35 34 36 34 33 31 33 36
32 33 34 35 41 41 41 44 44 49 43 42 43 44 47 50 51 50 48 50 49 46 46 41 36 34 40 45 47 42 42 43 41 37 38 39 37 37
28 31 32 37 40 39 40 42 36 34 45 57 51 43 50 54 54 52 45 48 53 53 48 48 48 44 36 37 37 39 40 41 42 44 43 41 41 42
26 37 41 34 30 32 31 34 43 36 41 48 60 58 53 51 49 51 44 46 60 63 55 43 48 47 47 44 42 44 45 44 43 43 44 46 44 44
17 19 14 9 10 20 20 30 34 41 47 44 48 42 44 47 47 54 54 61 65 54 46 47 51 49 51 52 51 44 48 46 45 46 42 46 49 49
19 18 20 20 17 13 12 7 0 12 18 21 30 37 51 48 57 46 44 55 60 49 45 43 49 46 51 45 50 48 49 49 49 47 48 46 47 49
14 13 11 11 9 8 6 4 2 2 6 8 8 9 9 9 12 16 22 31 43 38 36 40 42 44 44 45 47 51 49 48 49 49 48 52 56 55
13 12 10 8 9 7 5 6 4 5 6 7 9 11 12 14 15 16 17 19 20 23 28 28 35 40 39 41 44 48 49 48 47 51 57 56 57 61
13 13 12 10 9 8 9 10 13 12 14 15 16 17 18 20 21 22 23 25 27 29 30 31 33 34 35 34 32 34 37 42 47 52 56 62 62 63
17 16 15 16 16 17 16 16 17 18 19 21 22 23 25 26 27 28 29 30 31 34 36 36 38 39 40 40 38 37 39 40 41 42 44 46 49 53
19 21 22 22 21 21 21 21 22 23 25 26 28 29 31 32 33 34 35 36 38 39 41 41 42 43 44 45 46 42 43 43 45 45 45 46 46 46
21 22 22 23 25 26 26 26 28 29 29 30 31 32 33 35 37 38 39 41 43 44 46 46 46 47 48 49 51 51 49 48 47 48 48 49 49 48
26 26 27 26 27 28 29 30 30 32 34 36 37 37 37 37 38 40 42 42 43 44 45 48 52 52 51 50 52 54 53 52 51 50 50 50 50 50
31 33 34 34 33 32 32 33 34 35 35 35 37 38 39 39 40 40 41 42 43 44 44 45 47 48 51 53 53 54 54 54 53 52 51 51 51 49
32 33 35 35 35 36 36 36 36 37 38 39 39 39 39 40 40 40 41 40 39 40 40 42 40 43 45 46 50 50 49 49 50 49 48 47 46 46
32 33 32 32 33 34 34 35 36 37 38 39 40 40 39 39 39 38 39 39 38 36 34 34 36 37 38 40 41 42 43 42 43 42 42 42 42 41
29 29 29 30 31 32 33 34 35 35 36 38 39 40 40 39 38 38 37 36 35 34 32 30 31 32 31 32 33 34 35 36 36 36 36 35 34 34
31 30 30 30 30 31 32 33 33 34 35 35 37 38 39 40 38 36 35 33 32 32 30 28 27 27 27 27 27 29 29 30 31 30 29 29 29 29
32 31 31 31 31 30 29 29 30 31 32 34 35 36 37 38 38 36 33 30 28 27 27 26 24 23 23 24 24 25 25 26 27 27 26 25 24 23

GFSNE_700_spd_144.txt.gz
Wind_Speed
40 38 38 39 38 41 54 56 57 54 46 44 43 42 40 43 44 41 39 38 37 35 33 32 32 33 32 30 30 30 31 31 30 31 30 28 28 31
35 36 32 36 39 47 52 61 47 48 46 46 41 39 37 44 46 43 42 41 40 38 36 35 33 32 32 31 30 31 32 33 34 32 32 29 28 29
39 35 36 30 37 46 45 57 58 52 48 46 44 40 38 36 43 45 44 44 42 40 38 37 35 34 32 30 30 32 34 35 36 35 34 31 31 30
38 35 32 30 33 39 50 53 47 51 43 49 45 44 39 39 39 44 45 45 44 42 41 40 39 37 36 35 34 36 37 37 37 36 35 34 35 33
33 35 34 32 32 34 40 61 47 52 54 47 37 47 41 40 42 43 42 43 44 46 44 44 44 42 40 39 39 39 42 40 39 40 40 37 36 36
34 36 38 35 33 34 33 43 52 50 50 54 44 38 44 43 44 47 48 48 50 51 48 49 47 47 47 45 44 44 44 45 44 40 41 39 37 39
30 33 32 33 32 29 34 42 43 50 32 32 56 38 36 52 42 49 49 47 50 51 50 51 49 50 52 52 48 44 40 44 48 48 47 46 45 42
24 31 31 32 30 32 36 38 37 46 44 44 34 55 40 37 63 50 42 42 45 51 50 52 48 50 55 54 54 46 49 46 49 50 47 50 47 46
21 15 13 18 19 26 28 24 32 36 35 39 31 37 38 36 38 47 64 66 56 57 57 50 51 54 58 59 53 57 52 51 48 46 47 49 50 51
18 20 20 18 16 13 18 14 12 16 20 27 23 28 29 34 48 57 57 53 56 58 60 57 54 52 54 67 61 55 49 56 60 56 55 53 52 53
11 11 10 7 7 6 9 6 7 7 7 5 2 2 7 11 14 24 28 32 34 40 51 56 58 62 62 59 61 50 44 51 48 56 53 53 54 54
11 10 7 7 7 7 6 4 2 1 2 4 6 9 10 11 11 13 16 14 16 17 21 30 39 45 49 53 50 45 48 60 68 57 50 54 53 57
11 9 8 6 5 5 6 7 8 9 10 11 11 12 13 16 19 19 21 22 24 25 26 24 25 28 29 28 32 35 38 40 39 41 46 51 54 56
12 12 13 12 11 10 10 10 11 12 15 16 17 17 19 20 23 25 26 27 29 31 32 33 34 35 37 37 37 36 36 38 39 41 43 42 44 47
18 18 17 17 17 15 15 15 15 17 18 19 21 23 25 26 26 28 30 31 34 36 37 39 39 41 42 43 43 42 43 41 44 46 47 47 46 47
22 20 19 18 20 22 22 21 22 23 23 24 26 27 29 29 31 32 33 34 36 38 39 41 43 45 46 47 50 50 48 49 48 49 50 50 52 52
24 24 24 23 21 22 23 25 26 27 27 29 30 31 33 34 35 36 36 36 37 39 40 42 43 44 46 48 49 52 54 54 54 53 54 55 54 54
25 25 26 27 28 27 25 25 26 27 28 30 31 32 33 34 35 37 38 39 39 39 40 42 43 45 46 47 50 52 51 52 52 53 54 56 56 58
32 31 30 31 32 33 34 35 33 31 32 33 34 35 35 36 37 37 37 38 38 39 39 40 40 43 45 43 46 49 48 48 50 49 51 52 52 53
31 32 32 32 32 32 31 33 34 34 35 36 36 37 37 38 38 38 39 40 39 38 38 38 38 40 40 40 40 38 41 42 41 42 41 43 43 44
30 30 31 32 32 32 32 32 33 34 34 35 36 37 38 38 38 38 38 38 38 37 36 34 35 35 35 35 35 34 34 36 34 35 36 37 35 36
29 30 30 30 30 31 32 33 33 34 34 34 35 36 37 38 38 38 37 37 36 35 33 31 30 30 30 31 31 30 29 30 30 31 30 29 30 29
30 30 30 30 30 29 30 30 31 32 33 34 36 37 38 38 39 39 37 36 35 32 31 28 26 27 27 28 27 26 26 26 26 25 28 25 26 26

GFSNE_700_spd_147.txt.gz
Wind_Speed
30 34 39 49 53 47 49 45 45 44 45 45 46 49 40 44 45 42 40 38 37 39 38 36 34 33 31 29 28 27 28 28 28 29 30 29 30 31
32 34 38 38 39 49 51 44 43 45 48 44 58 55 42 40 43 45 43 41 38 40 40 37 36 34 33 32 32 32 31 31 30 30 31 31 31 31
26 27 34 45 33 34 42 37 35 40 40 47 52 49 39 37 40 42 43 44 42 42 41 40 38 37 36 36 35 34 33 33 32 31 32 34 34 33
27 29 34 34 30 31 38 40 38 42 48 44 53 60 39 56 39 41 41 42 44 45 44 44 42 40 39 37 35 34 34 33 32 33 33 36 38 37
20 20 28 28 30 35 35 34 39 43 45 44 45 42 65 44 39 40 40 39 40 47 46 45 44 43 42 41 39 38 38 37 37 35 35 37 39 40
22 22 23 30 33 35 35 35 37 36 43 34 40 44 52 55 45 40 46 42 43 43 45 44 45 45 45 45 43 43 43 41 40 39 39 39 41 42
20 27 29 31 33 34 34 35 35 30 40 49 43 47 54 45 41 42 35 44 43 43 43 43 44 44 45 46 47 47 46 48 46 44 41 44 44 45
7 16 23 27 28 31 30 34 36 28 32 34 48 53 43 46 46 44 44 41 38 40 41 43 44 44 45 48 49 49 50 50 51 53 47 44 43 51
25 21 15 2 11 20 19 24 30 29 33 37 39 45 35 41 49 55 26 46 40 47 44 44 42 43 44 48 49 52 54 53 53 55 56 52 45 46
15 18 19 21 19 16 11 10 6 4 17 30 37 40 45 35 36 32 39 33 57 44 41 40 52 58 46 46 51 52 56 54 49 47 54 54 61 55
11 10 8 6 6 9 9 11 14 13 9 8 9 14 20 17 21 33 37 41 43 47 51 56 66 68 62 61 65 65 47 53 58 61 57 61 59 59
11 10 8 7 7 5 3 3 3 3 2 1 1 3 7 8 5 5 6 12 16 23 30 34 33 37 41 53 57 46 60 63 68 68 63 56 61 57
10 9 9 8 7 6 7 6 6 7 7 7 9 10 12 12 14 15 17 17 19 20 19 21 22 23 24 29 30 35 43 48 54 60 64 66 70 66
12 11 9 8 10 11 11 11 9 11 11 11 13 13 15 17 18 21 22 24 25 27 29 30 31 31 31 31 32 30 31 34 34 36 39 43 44 45
17 17 19 18 16 16 16 15 15 15 16 17 18 19 19 20 21 23 25 28 30 30 32 35 37 37 38 38 40 40 41 41 42 42 42 42 45 45
21 21 20 19 19 20 19 19 19 19 19 20 21 22 23 24 26 27 29 31 32 34 35 37 38 39 41 43 45 45 46 46 46 47 48 47 49 51
23 20 19 20 22 22 22 22 23 24 23 23 23 24 26 27 29 30 30 31 32 34 36 38 40 40 41 44 46 47 49 49 50 49 49 50 51 53
27 26 26 25 23 21 23 24 24 25 25 27 28 28 28 28 29 31 32 34 34 35 36 37 39 39 41 42 45 49 49 47 49 49 50 52 51 50
28 30 30 29 30 32 29 26 26 27 28 28 27 27 29 30 31 30 30 31 32 34 35 38 38 40 44 42 39 43 45 44 48 46 46 47 50 49
30 31 31 31 32 33 32 32 34 32 29 28 29 30 30 32 33 34 35 36 35 33 33 33 35 40 41 42 43 38 37 41 43 43 39 40 42 41
30 31 31 32 31 31 33 33 32 33 33 32 33 32 31 31 33 34 35 35 36 37 37 35 34 34 36 37 38 38 34 35 37 35 35 35 32 31
31 31 31 31 31 31 31 32 33 34 34 33 34 34 35 35 35 35 35 36 37 37 37 36 35 34 34 34 34 34 31 30 32 30 28 28 28 26
31 31 31 31 31 31 30 29 29 31 33 35 35 35 36 36 37 38 38 37 37 37 37 37 34 31 31 30 31 30 26 24 25 24 25 25 23 24

GFSNE_700_spd_150.txt.gz
Wind_Speed
26 30 30 33 45 51 50 36 34 45 49 49 50 47 41 47 51 50 48 45 41 37 32 34 39 39 38 36 36 35 34 34 32 30 29 28 26 25
22 24 23 25 39 49 42 45 49 50 50 49 51 50 45 53 52 43 43 46 45 40 37 34 38 40 39 36 35 35 33 32 30 29 29 28 28 28
13 18 24 19 29 44 45 44 46 43 43 45 41 44 43 38 38 39 38 44 47 44 40 38 37 39 39 37 35 35 33 32 32 31 30 30 30 30
15 16 14 19 27 30 35 20 46 42 43 37 35 34 33 37 45 51 47 45 48 45 44 42 41 40 39 39 37 37 36 35 36 36 34 34 32 31
15 20 16 18 27 19 36 28 24 30 36 35 30 35 40 45 44 43 65 74 45 47 47 45 44 42 41 42 42 40 39 38 37 38 37 36 34 33
7 13 11 10 12 24 21 25 26 24 26 35 39 41 29 50 50 47 56 47 18 51 52 47 48 48 47 48 47 44 42 40 38 38 38 39 39 37
10 15 10 12 13 17 21 22 26 25 25 27 31 40 43 37 37 41 51 53 46 32 55 48 47 47 49 50 48 47 44 43 42 40 40 41 40 39
22 16 11 10 18 23 25 28 27 25 27 27 29 32 44 43 46 37 30 38 30 31 44 43 45 48 49 51 49 48 46 45 44 43 42 43 46 44
18 20 24 22 14 6 8 14 18 23 24 26 30 33 32 32 40 34 36 34 32 38 44 40 45 47 46 46 46 45 44 45 46 46 46 47 49 50
13 14 14 15 17 19 19 15 14 9 7 11 18 23 28 36 40 40 37 41 44 46 41 25 40 50 49 49 48 47 45 50 50 47 46 47 47 52
16 16 14 13 9 9 11 10 11 11 13 12 9 7 2 3 4 23 28 26 34 37 49 39 35 37 34 38 41 40 46 50 54 45 52 51 52 49
17 16 15 13 11 9 7 7 6 6 4 4 6 9 9 9 7 4 2 8 20 24 27 30 33 38 36 39 44 47 51 62 53 51 50 53 55 63
15 16 15 13 11 11 10 10 9 9 8 9 8 9 10 10 10 10 9 7 6 10 10 12 12 16 18 21 27 32 37 44 53 56 61 66 73 69
17 14 14 15 14 13 12 12 11 11 10 12 13 13 14 15 15 15 17 18 18 20 21 22 23 25 25 25 25 25 27 31 34 36 39 42 48 55
18 18 17 16 16 17 16 15 15 15 15 15 16 16 17 18 19 19 20 22 23 25 27 28 28 29 32 33 33 35 35 37 39 37 35 36 36 36
20 21 21 19 17 17 17 18 18 18 18 18 18 19 19 19 21 22 23 24 25 26 28 30 31 32 34 37 37 37 40 42 43 43 43 44 44 46
22 22 21 21 22 21 20 18 18 19 20 21 21 23 23 24 24 24 25 25 26 27 28 31 32 33 35 39 38 41 42 41 42 44 46 46 47 48
25 23 23 23 24 22 22 23 24 25 24 22 22 23 25 26 27 28 28 28 28 28 30 31 32 35 35 37 38 39 41 42 44 45 46 48 45 45
28 27 27 27 26 27 26 24 24 24 25 27 28 28 28 28 27 27 28 29 29 30 31 32 34 38 38 36 33 40 43 40 42 44 45 43 45 43
28 28 28 28 28 29 29 31 32 29 28 27 26 26 28 30 31 31 30 30 30 30 30 31 33 35 38 40 40 30 37 41 41 42 43 39 39 40
29 29 29 29 29 29 30 31 33 34 34 33 30 28 28 29 30 30 31 32 33 35 35 34 33 35 36 37 38 38 32 33 36 36 38 37 32 28
29 29 30 30 30 31 31 30 30 32 34 37 34 31 31 31 32 31 32 32 33 34 35 36 36 35 35 37 37 38 34 29 30 32 30 28 29 25
30 30 30 30 30 30 30 30 30 31 32 35 37 33 33 33 34 34 32 32 34 34 35 36 35 35 35 35 35 34 31 26 24 25 27 23 23 24

GFSNE_700_spd_153.txt.gz
Wind_Speed
22 22 25 25 29 35 41 48 49 40 32 33 44 40 36 33 36 42 45 44 45 43 40 36 35 34 39 43 41 42 41 39 38 36 35 34 33 32
19 21 26 24 25 33 37 43 48 42 36 26 35 42 42 38 31 34 47 46 43 46 46 41 38 37 36 44 44 43 42 41 40 39 38 36 35 33
18 24 14 16 22 17 26 29 45 48 42 41 30 32 33 36 41 39 42 48 53 59 55 53 44 41 39 40 45 43 42 42 42 39 38 37 36 35
23 15 19 23 18 18 20 25 40 52 47 41 36 32 34 39 41 47 50 47 43 43 52 55 49 46 43 39 44 45 44 43 43 41 38 37 36 36
17 18 22 19 14 17 18 22 32 30 37 43 43 41 35 33 40 39 37 43 45 48 51 54 53 54 49 46 43 46 45 44 43 42 41 39 38 37
17 12 13 13 7 10 14 14 29 42 32 23 28 33 39 34 37 37 33 35 38 51 54 51 38 57 60 51 49 49 48 47 46 46 44 42 41 40
26 21 16 13 12 13 9 6 9 9 13 19 24 27 34 35 37 32 35 46 45 42 49 52 45 49 72 53 57 55 53 52 51 49 47 44 43 43
21 24 26 19 15 13 10 12 11 13 18 17 20 21 23 28 25 35 36 41 39 47 35 32 43 52 56 61 61 61 57 54 52 50 48 46 45 43
21 20 18 19 22 21 22 19 9 8 18 21 23 23 24 26 27 24 29 34 36 32 35 27 31 33 39 52 67 59 59 54 52 52 51 49 47 46
19 18 17 16 14 14 13 14 15 16 10 1 8 13 15 19 21 22 29 27 28 34 35 32 32 32 37 43 57 54 54 53 52 52 51 50 49 49
19 18 18 17 15 14 12 9 6 7 9 11 12 9 8 4 1 9 22 28 29 36 40 36 38 34 32 39 45 49 53 57 53 53 53 51 51 52
20 19 17 15 15 14 12 11 10 8 7 5 3 2 3 6 8 4 2 6 14 16 20 26 32 36 35 36 33 26 42 45 53 52 57 55 54 56
19 19 18 16 15 14 14 12 11 9 9 8 8 8 8 7 8 9 6 5 6 8 8 13 14 16 20 21 26 27 27 33 39 43 46 51 47 54
20 19 19 19 17 16 15 14 14 12 11 11 10 11 11 11 11 12 14 14 14 17 16 15 14 12 12 13 14 16 18 18 21 23 28 32 37 44
19 20 19 18 18 20 18 17 17 15 15 14 13 12 13 13 13 14 15 16 16 19 21 20 22 22 25 24 26 27 28 29 28 28 29 30 32 35
20 19 17 17 17 17 18 18 17 17 17 17 17 16 15 15 15 16 16 18 19 21 21 22 24 26 28 28 28 30 31 31 34 35 36 38 39 41
22 22 21 19 17 16 16 16 18 18 18 18 19 19 19 19 20 20 19 20 20 20 22 26 25 27 29 30 30 32 33 35 37 38 39 37 41 43
22 23 23 24 24 23 21 19 18 18 19 20 21 22 22 22 22 23 23 23 23 23 24 26 25 24 27 31 31 32 35 37 38 39 42 40 36 41
24 23 23 24 24 25 25 26 25 24 23 21 21 23 23 24 25 25 26 27 27 28 29 30 31 32 27 25 26 37 35 34 36 37 39 42 40 37
27 26 25 25 24 24 26 27 27 27 27 25 25 25 27 28 26 25 27 28 28 28 29 31 33 34 36 36 31 25 35 37 38 38 38 39 37 38
27 27 27 27 26 25 25 26 28 29 32 31 25 25 27 27 27 29 30 29 28 29 28 29 31 33 34 36 37 35 28 34 38 39 38 38 35 32
28 27 27 27 27 27 27 26 27 28 31 33 30 28 29 29 28 29 30 31 32 33 33 31 31 32 33 36 36 36 32 29 33 34 33 34 34 29
28 29 28 28 27 27 27 27 28 29 31 32 31 29 31 31 31 31 31 31 32 32 34 34 34 35 35 35 36 36 33 31 30 31 31 31 29 29

GFSNE_700_spd_159.txt.gz
Wind_Speed
23 22 24 24 21 23 25 27 30 36 33 34 36 41 36 38 40 44 44 48 47 42 44 43 49 46 48 44 43 46 45 44 43 43 42 45 46 45
29 25 24 21 20 19 21 21 23 30 37 30 28 35 42 42 39 37 33 43 48 47 42 42 47 42 44 52 45 45 47 48 46 44 44 45 45 45
31 34 31 27 21 19 19 22 26 27 32 29 23 29 42 47 45 39 35 37 44 46 44 42 40 40 47 52 47 50 49 49 50 48 47 46 46 47
24 27 34 33 26 24 25 22 21 24 19 18 22 24 34 35 27 25 44 38 40 41 43 42 46 44 48 59 61 35 53 48 44 52 50 49 48 49
24 24 25 31 31 26 21 19 20 23 24 20 19 19 27 34 34 31 34 38 42 41 37 39 42 51 50 58 65 51 50 52 53 51 47 53 52 51
23 24 23 23 27 31 25 20 18 20 17 28 23 22 36 32 35 40 29 33 40 47 45 43 39 41 47 43 44 38 39 62 49 55 45 52 57 55
22 22 24 22 23 25 27 29 21 14 12 17 28 27 37 33 34 37 28 29 24 30 35 31 27 25 36 41 43 39 38 40 53 53 59 54 57 59
22 22 21 23 20 21 21 23 27 25 15 7 7 33 37 30 45 37 34 35 35 29 30 23 30 36 40 40 29 34 36 35 39 60 61 61 53 60
23 23 23 21 21 20 19 20 22 27 25 18 4 3 10 21 21 25 28 26 28 35 34 37 33 33 35 33 40 42 42 41 45 45 49 59 68 61
23 24 24 23 21 20 18 18 17 17 20 25 20 7 4 8 13 17 18 18 23 22 28 33 37 37 39 40 42 41 40 43 32 35 46 51 54 73
24 23 23 23 23 21 20 18 17 16 14 13 18 23 18 8 3 11 12 17 21 25 27 26 28 29 30 31 31 30 34 36 36 29 31 39 39 51
24 24 23 22 22 21 20 18 18 16 14 12 13 11 13 14 12 5 2 8 10 14 19 22 24 26 28 27 22 21 29 33 30 30 30 26 37 47
23 24 23 22 21 21 20 19 17 17 16 14 11 9 9 8 10 8 8 7 6 7 8 11 15 18 20 21 22 21 20 21 22 24 25 22 26 37
22 22 23 23 23 22 21 21 21 19 18 17 16 15 14 13 10 9 8 9 9 10 11 11 9 10 13 13 13 13 14 16 17 20 20 18 17 24
25 23 22 21 21 22 21 20 20 19 19 18 16 16 15 13 12 11 11 11 11 11 12 14 15 17 16 19 21 18 16 16 17 16 14 15 17 22
26 25 23 22 21 20 20 20 20 19 18 18 17 16 16 16 15 16 15 13 13 13 14 15 15 17 20 22 23 23 22 22 23 22 22 21 22 20
25 25 25 25 24 23 20 19 18 19 19 19 18 18 17 17 17 17 17 17 16 16 18 19 17 18 19 22 23 24 25 24 25 24 25 24 23 26
26 25 25 25 25 25 24 22 21 19 18 18 18 18 17 17 18 19 19 18 18 18 17 18 20 23 22 21 23 24 25 25 26 26 24 24 28 32
27 27 26 26 26 27 27 26 24 22 22 21 21 20 20 19 20 20 21 21 21 21 21 21 20 20 21 23 27 27 26 27 25 27 28 27 26 30
29 28 28 27 27 27 27 26 26 25 24 23 24 24 23 23 23 23 23 23 23 24 24 24 24 24 24 24 24 27 31 30 29 28 28 29 29 30
29 29 29 30 29 27 27 27 27 26 25 25 24 25 25 25 26 26 25 25 25 26 26 27 27 27 27 26 26 26 29 33 34 31 28 27 28 29
29 29 28 28 27 27 27 26 27 26 26 27 26 25 25 25 25 25 26 26 26 27 27 28 29 29 30 30 30 29 27 29 33 35 37 34 29 25
28 27 26 26 26 25 26 25 25 24 25 25 25 26 27 27 26 26 26 26 26 26 26 27 28 29 31 31 32 32 32 31 30 28 31 40 37 28

GFSNE_700_spd_162.txt.gz
Wind_Speed
25 27 28 28 26 25 25 26 29 28 20 8 19 31 37 41 43 47 49 55 52 50 51 48 45 40 51 52 53 51 49 47 46 44 42 42 40 44
26 26 27 30 31 27 24 24 24 26 27 17 13 22 35 38 42 40 44 48 49 47 47 48 46 43 46 54 53 47 51 45 47 48 47 44 44 43
23 24 27 27 28 32 29 25 23 23 22 19 13 16 27 35 40 39 39 39 40 42 42 46 49 46 43 45 46 47 51 56 52 52 50 47 46 46
21 21 22 25 26 28 32 32 29 23 20 20 19 14 18 30 37 40 34 33 41 39 38 41 47 44 44 42 50 50 45 56 54 53 50 51 49 49
22 22 22 22 24 26 27 30 34 30 23 21 16 15 18 22 29 39 44 46 35 37 34 36 43 47 44 46 48 42 49 59 61 57 43 47 53 52
23 23 23 23 22 24 24 27 28 32 30 23 14 14 16 18 23 29 35 30 30 32 43 37 39 44 47 47 46 40 46 56 54 50 56 58 58 51
23 24 24 24 24 23 23 23 25 27 31 28 21 14 14 21 31 35 34 33 45 38 34 42 41 42 40 50 37 47 47 37 44 51 60 65 47 52
23 24 24 24 23 23 23 22 21 24 24 29 23 17 11 28 31 29 35 38 33 27 32 38 44 46 42 46 43 42 41 42 40 42 39 48 62 59
23 24 24 24 24 22 23 23 22 23 23 24 28 23 14 6 11 21 24 24 28 30 37 28 25 41 39 43 39 35 34 33 33 32 32 35 39 48
24 24 24 24 24 24 22 21 21 20 19 20 18 24 25 14 6 2 8 13 17 19 26 26 28 31 29 28 32 32 35 35 39 39 39 38 43 46
25 25 25 24 24 24 24 24 23 22 19 18 17 14 18 25 21 12 12 4 6 12 15 19 16 23 33 30 31 33 35 38 39 41 42 44 43 42
26 26 25 25 23 22 21 21 20 19 20 20 18 16 12 11 15 18 16 11 6 7 11 13 16 21 21 21 22 26 28 29 32 34 38 38 41 44
26 26 25 25 25 23 22 20 19 19 18 18 18 17 15 13 11 13 12 14 16 11 5 8 12 16 17 18 21 20 19 21 23 25 26 25 30 36
26 25 25 24 25 25 24 23 21 20 20 19 19 18 16 16 14 11 10 11 11 13 14 14 10 10 10 10 12 15 17 18 19 20 22 23 23 26
27 25 24 23 23 24 23 23 22 21 20 18 18 18 17 16 13 12 11 11 10 10 11 13 15 15 15 14 12 13 13 14 13 14 14 14 15 19
28 25 24 23 22 22 22 22 23 22 21 20 19 18 18 18 17 16 16 15 13 12 12 13 14 15 16 18 18 19 19 19 21 21 21 19 19 17
28 26 26 26 25 24 22 22 21 21 22 21 21 20 19 18 18 18 17 16 16 16 17 15 15 16 16 18 18 18 19 20 22 23 23 24 24 24
26 26 27 26 25 24 23 23 22 21 20 21 21 20 19 19 19 19 19 18 18 17 17 18 20 20 19 18 19 19 19 19 21 22 22 23 27 26
27 27 27 27 27 26 25 24 23 22 22 21 21 21 21 21 20 19 20 20 21 21 20 20 19 19 20 22 26 23 21 22 22 23 23 22 23 27
28 28 28 28 27 27 27 26 24 23 23 22 22 21 22 22 22 22 22 22 22 22 23 23 23 24 24 23 22 25 26 25 24 24 24 25 24 25
29 29 29 28 27 26 26 26 25 24 23 23 23 23 22 21 22 23 23 24 24 24 24 24 24 24 24 26 26 25 28 29 27 25 26 24 25 27
29 29 28 27 26 26 25 25 24 24 23 23 23 23 23 23 22 22 22 22 23 24 24 25 25 25 25 26 26 27 26 26 29 30 30 27 24 23
29 28 27 26 25 25 24 23 23 22 22 22 22 22 23 23 23 24 24 23 23 24 24 24 25 26 27 27 28 28 26 26 25 24 29 34 26 22

GFSNE_700_spd_165.txt.gz
Wind_Speed
18 19 21 22 25 28 30 31 27 21 12 11 15 24 30 33 38 42 45 53 59 59 55 55 53 50 51 54 47 49 53 57 51 50 51 46 46 41
18 19 20 22 22 23 26 29 31 28 22 19 16 18 26 29 34 38 41 45 52 54 53 54 52 49 46 42 44 52 55 46 54 49 50 49 50 44
18 18 19 20 21 22 23 25 26 28 25 23 23 20 19 23 31 34 36 40 44 45 44 50 52 50 49 45 43 44 46 51 44 57 51 47 50 50
17 18 19 20 21 21 21 21 24 27 29 24 22 24 19 18 22 30 33 37 39 37 40 33 44 49 48 50 48 43 40 51 54 49 44 57 54 53
19 20 20 21 21 21 22 23 23 24 27 30 26 24 15 17 18 22 26 29 33 25 29 34 35 40 43 46 49 46 43 43 44 50 55 62 55 51
21 22 22 21 21 22 22 22 22 23 23 26 29 23 20 18 15 17 20 25 31 36 32 28 32 39 36 42 47 49 48 46 44 45 43 56 61 60
23 23 22 22 22 22 23 23 23 22 21 21 24 28 21 20 16 21 22 26 33 42 39 43 32 38 34 35 41 47 48 50 46 47 49 55 67 61
22 22 23 22 22 23 24 24 23 22 22 21 20 21 25 20 18 18 23 29 28 37 24 35 34 41 37 44 42 42 51 42 43 43 50 47 57 43
22 23 24 24 24 23 24 24 24 24 24 22 20 18 17 21 16 14 18 21 24 29 36 36 38 42 43 49 42 45 46 46 45 50 59 48 42 42
22 23 24 24 24 24 23 22 22 21 20 20 19 17 16 15 17 11 7 7 12 18 18 19 28 31 28 37 46 45 42 44 43 45 47 45 40 42
23 23 23 24 24 24 24 24 25 24 23 20 17 16 16 15 16 18 15 9 9 8 12 15 15 17 29 32 38 45 39 44 48 43 41 41 40 40
23 24 24 24 23 23 22 22 21 21 20 20 18 16 14 14 13 12 15 16 14 8 9 12 13 12 13 12 17 20 22 31 27 36 43 45 46 47
25 25 24 24 23 23 23 23 21 21 21 21 20 18 16 15 14 13 12 10 11 16 17 13 10 11 13 12 12 13 18 26 28 23 32 38 38 38
26 26 24 24 24 23 24 24 23 21 21 21 20 19 17 15 15 15 11 10 10 8 12 13 15 13 12 11 12 13 15 18 20 21 22 25 26 30
28 26 24 23 23 23 23 23 23 23 21 20 20 19 18 16 14 13 12 13 11 9 9 11 12 13 16 16 15 13 13 12 14 16 18 19 22 24
27 26 24 23 22 23 24 23 22 22 22 21 21 20 20 19 17 16 16 16 16 14 13 12 12 13 15 14 15 17 16 17 17 17 17 16 16 17
27 27 26 26 26 24 23 23 24 23 22 22 22 21 19 20 19 18 16 15 15 16 18 16 14 14 14 15 15 16 16 18 20 21 22 21 22 23
28 28 27 26 26 25 24 23 23 23 22 21 21 21 21 19 19 20 20 18 17 16 17 18 19 19 18 16 17 17 16 17 19 19 21 24 25 24
29 28 28 27 26 25 24 23 22 22 22 22 21 21 21 21 21 20 20 21 20 20 19 19 18 19 19 21 23 20 19 19 20 20 19 21 24 24
29 28 27 27 26 26 25 24 23 22 22 22 22 21 20 20 20 20 20 20 20 21 21 21 20 21 21 21 20 24 23 22 21 22 22 23 23 24
29 28 26 27 26 24 24 23 22 22 21 21 21 20 20 20 19 19 19 20 20 21 21 22 22 21 22 22 21 21 24 25 24 25 23 22 24 25
28 27 26 25 24 23 23 22 22 21 20 20 19 19 19 20 20 20 20 20 20 20 21 22 22 22 22 23 23 22 21 22 26 27 26 23 22 23
27 26 25 24 23 23 22 21 20 19 19 19 19 20 20 20 20 21 21 22 22 22 22 22 22 23 24 24 24 24 23 22 21 22 27 25 23 21